Regional Weather Roundup
Issued by NWS Albany, NY

Home | Current Version | Previous Version | Text Only | Print | Product List | Glossary Off
Versions: 1 2 3 4 5 6 7 8 9 10 11 12 13 14 15 16 17 18 19 20 21 22 23 24 25 26 27 28 29 30 31 32 33 34 35 36 37 38 39 40 41 42 43 44 45 46 47 48 49 50

000
ASUS41 KALY 030610
RWRALY

NEW YORK STATE HOURLY WEATHER ROUNDUP
NATIONAL WEATHER SERVICE ALBANY NY
200 AM EDT FRI JUL 03 2015

NOTE: "FAIR" INDICATES FEW OR NO CLOUDS BELOW 12,000 FEET WITH NO
SIGNIFICANT WEATHER AND/OR NO OBSTRUCTIONS TO VISIBILITY.

NYZ032-033-038>043-046>054-057>066-NYZ062>081-030700-
EAST


CITY           SKY/WX    TMP DP  RH WIND       PRES   REMARKS
ALBANY         CLEAR     58  46  64 CALM      29.94R
GLENS FALLS    CLEAR     57  49  74 CALM      29.93S
POUGHKEEPSIE   CLEAR     59  56  89 CALM      29.92R
NEWBURGH       PTCLDY    64  54  68 E6        29.95R
MONTGOMERY     CLEAR     59  58  96 CALM      29.93R
WHITE PLAINS   PTCLDY    66  58  75 N6        29.91R
ISLIP          PTCLDY    66  63  90 NW3       29.88S
NEW YORK CITY  PTCLDY    71  62  73 NW7       29.89R
CENTRAL PARK   CLEAR     71  61  70 CALM      29.93R
$$

NYZ005>009-017-018-044>046-055-056-030700-
CENTRAL


CITY           SKY/WX    TMP DP  RH WIND       PRES   REMARKS
FULTON         CLEAR     48  46  93 CALM      29.98S
SYRACUSE       CLEAR     54  50  86 CALM      29.98S
ROME           CLEAR     49  47  93 CALM      30.00R
ELMIRA         CLEAR     50  48  93 CALM      29.99S
BINGHAMTON     CLEAR     53  46  77 N6        29.99R
MONTICELLO     CLEAR     55  52  88 NW3       29.98R
$$

NYZ026>034-041>043-030700-
NORTH


CITY           SKY/WX    TMP DP  RH WIND       PRES   REMARKS
WATERTOWN      CLEAR     48  45  89 CALM      29.96S
FORT DRUM      NOT AVBL
MASSENA        PTCLDY    52  48  86 SW6       29.95R
SARANAC LAKE   CLEAR     39  37  92 CALM      29.96S
PLATTSBURGH    CLEAR     59  47  64 VRB6      29.91S
$$

NYZ001>004-010>016-019>021-030700-
WEST


CITY           SKY/WX    TMP DP  RH WIND       PRES   REMARKS
NIAGARA FALLS  CLEAR     53  48  83 CALM      29.99S
BUFFALO        CLEAR     56  49  77 CALM      30.00S
DUNKIRK        CLEAR     49  48  97 CALM      30.00S
JAMESTOWN      CLEAR     55  45  67 NE5       30.02R
WELLSVILLE     CLEAR     51  48  89 CALM      30.03S
ROCHESTER      CLEAR     53  50  89 SW5       29.99S
PENN YAN       CLEAR     51  49  92 CALM      30.00S
$$

             KEY
       WCI = WIND CHILL INDEX
       VSB = VISIBILITY
       HX  = HEAT INDEX
$$


USA.gov is the U.S. government's official web portal to all federal, state and local government web resources and services.